Location: Caoma
(10.5237°N, 67.1352°W)
Time: 13:20:16
(UTC+00:00)

YAOGAN 1 - Pass Details

Date: 18 April 2024
Orbit: 612 x 614 km, 97.8° (Epoch: 24 May)

Event Time Altitude Azimuth Distance (km) Brightness Sun altitude
Rises 23:49:07 0° 178° (S) 2,871 5.8 -17.4°
Reaches altitude 10° 23:51:21 10° 183° (S) 1,967 5.0 -18.0°
Maximum altitude 23:55:30 50° 259° (W) 777 3.4 -18.9°
Drops below altitude 10° 23:59:39 10° 335° (NNW) 1,967 5.7 -19.9°
Sets 00:01:53 0° 340° (NNW) 2,871 6.5 -20.5°
